Flag for U.S.A. Weather past 2 weeks in Houston, Texas, U.S.A.

Now
78 °F

Passing clouds.


Feels Like: 81 °F
Forecast: 74 / 90 °F
Wind: 5 mph from Northeast

Location: Houston Hobby Airport

Current Time: Sep 21, 2014 at 3:30:07 AM

Latest Report: Sep 21, 2014 at 2:53 AM


Visibility: 10 mi

Pressure: 29.96 "Hg

Humidity: 90%

Dew point: 75 °F

Location of HoustonLocation

Historic Weather in Houston — Graph

°F

Houston temperature yesterday

Maximum temperature yesterday: 88 °F (at 1:53 PM)
Minimum temperature yesterday: 74 °F (at 5:53 AM)
Average temperature yesterday: 80 °F

Past Weeks' High & Low Weather Summary

 TemperatureHumidityPressure
High94 °F (Sep 10, 12:53 PM)100% (Sep 18, 11:56 AM)30.19 "Hg (Sep 18, 11:56 AM)
Low67 °F (Sep 14, 2:53 AM)41% (Sep 11, 2:53 PM)29.84 "Hg (Sep 10, 4:53 PM)
Average80 °F83%29.98 "Hg
* Reported Sep 6 1:53 AM — Sep 21 1:53 AM, Houston, Weather by CustomWeather, © 2014

Note: Actual official high and low records may vary slightly from our data, if they occured in-between our weather recording intervals... More about our weather records

Advertising

Houston weather history for previous 24 hours

 ConditionsComfort  
Time TempWeatherWind HumidityBarometerVisibility
1:53 AM
Sep 21
78 °FPassing clouds.3 mph90%29.96 "Hg10 mi
12:53 AM77 °FPassing clouds.3 mph94%29.96 "Hg10 mi
11:53 PM
Sep 20
78 °FPassing clouds.3 mph90%29.97 "Hg10 mi
10:53 PM79 °FPassing clouds.No wind88%29.98 "Hg10 mi
9:53 PM80 °FPassing clouds.No wind85%29.97 "Hg10 mi
8:53 PM80 °FClear.5 mph85%29.96 "Hg10 mi
7:53 PM81 °FScattered clouds.5 mph79%29.94 "Hg10 mi
6:53 PM83 °FScattered clouds.9 mph72%29.92 "Hg10 mi
5:53 PM83 °FScattered clouds.10 mph72%29.92 "Hg10 mi
4:53 PM86 °FBroken clouds.12 mph65%29.91 "Hg10 mi
3:53 PM88 °FScattered clouds.10 mph61%29.91 "Hg10 mi
2:53 PM88 °FScattered clouds.10 mph59%29.93 "Hg10 mi
1:53 PM88 °FScattered clouds.10 mph59%29.96 "Hg10 mi
12:53 PM86 °FScattered clouds.12 mph63%29.97 "Hg10 mi
7:53 AM76 °FPassing clouds.6 mph91%29.95 "Hg10 mi
6:53 AM75 °FPassing clouds.7 mph94%29.94 "Hg10 mi
5:53 AM74 °FPassing clouds.3 mph97%29.92 "Hg10 mi
4:53 AM75 °FPassing clouds.6 mph96%29.91 "Hg10 mi
3:53 AM75 °FPassing clouds.No wind96%29.92 "Hg10 mi
Weather by CustomWeather, © 2014

See weather overviewHow to use our weather pages